Date,TemperatureHighF,TemperatureAvgF,TemperatureLowF,DewpointHighF,DewpointAvgF,DewpointLowF,HumidityHigh,HumidityAvg,HumidityLow,PressureMaxIn,PressureMinIn,WindSpeedMaxMPH,WindSpeedAvgMPH,GustSpeedMaxMPH,PrecipitationSumIn
2013-2-1,44,29,16,23,15,8,75,58,35,30.43,30.12,16,5,16,0.00
2013-2-2,62,42,24,38,31,21,91,67,37,30.24,30.12,11,3,14,0.00
2013-2-3,59,48,35,33,31,28,77,54,31,30.27,29.89,13,6,14,0.00
2013-2-4,70,56,40,42,37,33,80,52,30,29.93,29.78,13,6,14,0.04
2013-2-5,72,49,29,45,36,28,99,67,26,30.01,29.88,8,2,9,0.00
2013-2-6,68,52,33,53,43,31,97,72,54,30.02,29.84,22,7,22,0.00
2013-2-7,59,52,41,56,50,39,99,93,80,30.12,29.79,15,7,18,0.01
2013-2-8,52,41,33,39,36,32,97,84,57,30.30,30.11,15,5,16,0.00
2013-2-9,44,41,34,44,38,32,99,90,75,30.14,29.69,18,10,22,0.05
2013-2-10,64,52,40,50,38,29,99,65,28,30.02,29.58,20,10,27,0.08
2013-2-11,57,42,30,32,28,25,84,61,33,30.19,30.02,12,3,13,0.00
2013-2-12,43,37,33,39,33,28,99,88,69,30.09,29.92,12,5,15,0.28
2013-2-13,35,34,33,35,34,33,99,99,99,30.00,29.95,12,5,12,0.01
2013-2-17,71,52,32,38,32,22,80,51,25,30.03,29.71,21,9,21,0.00
2013-2-18,65,55,36,54,41,28,80,62,44,30.12,29.58,29,14,29,0.00
2013-2-19,55,39,23,30,25,21,92,61,35,30.31,30.12,10,3,10,0.00
2013-2-20,36,34,31,36,30,21,99,85,55,30.25,29.97,13,5,13,0.17
2013-2-21,35,33,27,35,33,24,99,99,87,29.97,29.64,17,6,17,1.02
2013-2-22,40,29,20,26,22,18,94,77,52,30.11,29.92,13,6,13,0.00
2013-2-23,50,32,18,29,23,18,97,74,44,30.10,29.91,7,2,9,0.00
2013-2-24,60,44,26,42,34,24,93,71,49,29.93,29.71,18,6,22,0.00
2013-2-25,44,39,33,40,37,33,99,94,76,29.79,29.44,24,11,24,1.05
2013-2-26,44,37,33,37,34,31,99,91,73,29.88,29.47,21,11,24,0.19
2013-2-27,49,38,32,35,32,29,97,79,54,30.12,29.86,20,8,20,0.00
2013-2-28,46,37,29,34,30,27,96,78,61,30.19,30.10,17,8,17,0.00